Location: ????????
(38.4362°N, 22.8767°E)
Time: 14:40:53
(UTC+00:00)

ACS3 Solar Sail - Pass Details

Date: 27 June 2024
Orbit: 993 x 1023 km, 97.4° (Epoch: 18 July)

Event Time Altitude Azimuth Distance (km) Brightness Sun altitude
Exits shadow 20:38:56 24° 208° (SSW) 1,923 6.0 -22.9°
Maximum altitude 20:42:12 42° 264° (W) 1,381 5.7 -23.2°
Drops below altitude 10° 20:48:04 10° 334° (NNW) 2,764 8.3 -23.7°
Sets 20:50:43 0° 341° (NNW) 3,716 9.3 -23.9°
